sat.trackr.live / text

‹ back to catalog

KUIPER-00480

NORAD 68876 · 2026-095N

PAYLOAD ACTIVE UNKNOWN

§ Identity

Operator
Country
US
Launch date
2026-04-28
Launch site
AFETR
Launch vehicle
Mass (kg)
RCS (m²)

External: N2YO · Heavens-Above · Gunter

§ Orbital elements

Epoch: 2026-05-24T21:14:46.845888Z

Period
93.66 min
Inclination
51.8777°
Eccentricity
0.0006257
Mean motion
15.37426759 rev/d
Perigee alt
449.4 km
Apogee alt
458.0 km
Semi-major
6,831.9 km
B*
6.3956e-4
RAAN
355.1072°
Arg perigee
201.6613°
Mean anomaly
158.4110°
Rev number
414

§ Raw data

KUIPER-004801 68876U 26095N   26144.88526442  .00023531  00000+0  63956-3 0  99982 68876  51.8777 355.1072 0006257 201.6613 158.4110 15.37426759  4142

JSON: /api/v1/satellites/68876 · /tle

For live sub-satellite position, see the globe view (requires WebGL).

§ Visibility from observer

Set your observer location to see the next 7 days of passes ≥ 10°. The values pass through the URL so the page stays shareable.

No JS? Fill the form by hand. The geolocation button needs JavaScript.